TimeCAT,TemperatureF,Dew PointF,Humidity,Sea Level PressureIn,VisibilityMPH,Wind Direction,Wind SpeedMPH,Gust SpeedMPH,PrecipitationIn,Events,Conditions,WindDirDegrees,DateUTC
12:00 AM,59.0,57.2,94,30.21,6.2,SE,3.5,-,N/A,,Mostly Cloudy,140,2012-10-13 22:00:00
1:00 AM,59.0,57.2,94,30.21,-9999.0,ESE,4.6,-,N/A,,Clear,120,2012-10-13 23:00:00
2:00 AM,58,57,95,,19,East,3.5,,,,Mostly Cloudy,100,2012-10-14 00:00:00
2:00 AM,59.0,57.2,94,30.18,-9999.0,East,3.5,-,N/A,,Clear,100,2012-10-14 00:00:00
3:00 AM,59.0,57.2,94,30.18,-9999.0,ENE,13.8,-,N/A,,Clear,60,2012-10-14 01:00:00
5:00 AM,57.2,57.2,100,30.21,-9999.0,SE,4.6,-,N/A,,Clear,130,2012-10-14 03:00:00
6:00 AM,59.0,57.2,94,30.21,1.9,ESE,4.6,-,N/A,,Mostly Cloudy,120,2012-10-14 04:00:00
7:00 AM,62.6,59.0,88,30.24,-9999.0,ESE,8.1,-,N/A,,Clear,120,2012-10-14 05:00:00
8:00 AM,66,60,76,,9,ESE,8.1,,,,Haze,120,2012-10-14 06:00:00
8:00 AM,66.2,60.8,83,30.24,6.2,ESE,8.1,-,N/A,,Mostly Cloudy,120,2012-10-14 06:00:00
9:00 AM,69.8,60.8,73,30.24,6.2,ESE,8.1,-,N/A,,Mostly Cloudy,110,2012-10-14 07:00:00
10:00 AM,73.4,59.0,61,30.24,6.2,East,9.2,-,N/A,,Mostly Cloudy,90,2012-10-14 08:00:00
11:00 AM,71.6,59.0,64,30.24,6.2,ENE,9.2,-,N/A,,Mostly Cloudy,60,2012-10-14 09:00:00
12:00 PM,73.4,59.0,61,30.21,6.2,NE,11.5,-,N/A,,Mostly Cloudy,40,2012-10-14 10:00:00
1:00 PM,77.0,57.2,50,30.18,6.2,NNE,8.1,-,N/A,,Mostly Cloudy,20,2012-10-14 11:00:00
2:00 PM,80,58,36,,12,East,9.2,,,,Partly Cloudy,80,2012-10-14 12:00:00
2:00 PM,-9999,-9999,N/A,30.15,6.2,Variable,8.1,-,N/A,,Scattered Clouds,0,2012-10-14 12:00:00
3:00 PM,77.0,59.0,54,30.12,6.2,East,9.2,-,N/A,,Scattered Clouds,100,2012-10-14 13:00:00
4:00 PM,77.0,57.2,50,30.12,6.2,ESE,6.9,-,N/A,,Mostly Cloudy,120,2012-10-14 14:00:00
5:00 PM,69.8,59.0,68,30.12,6.2,East,13.8,-,N/A,Thunderstorm,Light Thunderstorm,90,2012-10-14 15:00:00
6:00 PM,64.4,59.0,83,30.18,6.2,ENE,11.5,-,N/A,Rain-Thunderstorm,Light Thunderstorms and Rain,70,2012-10-14 16:00:00
7:00 PM,62.6,60.8,94,30.21,6.2,ESE,4.6,-,N/A,Rain-Thunderstorm,Light Thunderstorms and Rain,120,2012-10-14 17:00:00
8:00 PM,62,60,92,,6,ESE,5.8,,,Rain-Thunderstorm,Thunderstorms and Rain,120,2012-10-14 18:00:00
8:00 PM,62.6,60.8,94,30.21,6.2,ESE,5.8,-,N/A,Rain-Thunderstorm,Light Thunderstorms and Rain,120,2012-10-14 18:00:00
9:00 PM,62.6,60.8,94,30.24,6.2,ENE,11.5,-,N/A,,Overcast,60,2012-10-14 19:00:00